Вернуться в каталог

BREEZE-M DEB

TANK

АктивенHEO
NORAD 42944·DEBRIS·🇷🇺 Russia

Запущен Sep 28, 2017 с Baikonur Cosmodrome

Loading…

Ближайшие Пролёты (ближайшие 24 часа)

TLE

СвежийSource: Space-Track

Эпоха: Sep 13, 2026, 08:08 UTC

1 42944U 17057C   26256.33925855  .00003402  00000-0  89953-3 0  9990
2 42944  49.6359 244.3737 5101115   9.5515 357.3112  5.41846531172931

Отслеживайте BREEZE-M DEB в реальном времени с AllMySat

Download on the App Store